DELTA 1 DEB, 21347

Orbit data source: Space-Track

DELTA 1 DEB, 21347 is space debris in SSO originally from a launch on Thu, 12 Jun 1975 UTC launched from the Air Force Western Test Range (AFWTR). Debris objects in space refer to the collection of defunct objects orbiting the Earth. Examples of debris include non-operational satellites, rocket bodies, and fragments generated from explosions, collisions, or faulty payload assembly.

Loading next visibility...
Identifier
21347, 1975-052BR
Orbit
SSO
Country
Flag of USUS
Related business
Manufacturer
Unknown
Mission
Spacecraft
Bus & Motor
Unknown
Mass
Unknown
Launch date (UTC)
1975-06-12 (51 years ago)
Launch vehicle
Unknown
Launch site
Air Force Western Test Range (AFWTR)
Object type
Payload
Rocket body
Debris
Shape & HBR
Unknown shape, 0.1 m
Radar Cross Section
Medium (>0.1 m² and <1 m²)

Expand to show TLE details & history
Last TLE update: 2 days ago

TLE from 2 days ago
0 DELTA 1 DEB
1 21347U 75052BR  26171.35553866 -.00000423  00000-0 -52006-3 0  9991
2 21347  99.4082 308.0597 0386556 290.0610 123.0984 13.32105963665001
Epoch: 2026-06-20T08:31Z
TLE epoch observation values (Epoch: 2026-06-20T08:31:58.540Z)
Latitude
55.70703°
Longitude
-102.49588°
Altitude
1,314.34 km
Speed
7.125 km/s
True Right ascension
19h 36m 16s
True Declination
55° 33' 30"
Sunlit
Object was in daylight at epoch
Visualization orbit readout
Latitude
Unknown
Longitude
Unknown
Altitude
Unknown
Speed
Unknown
Apparent Right ascension
Unknown
Apparent Declination
Unknown
Sunlit
N/A
Visualization observer readout
Local Sidereal Time
17:35:14
Azimuth
Unknown
Elevation
Unknown
Doppler factor
Unknown
Orbital elements
Apogee altitude
1,426.604 km
Perigee altitude
845.666 km
Semi-major axis
7,514.272 km
Eccentricity
0.03866
Inclination
99.4082°
RAAN
308.0597°
Arg. of periapsis
290.061°
True anomaly
126.71135°
Mean anomaly
123.0984°
Eccentric anomaly
124.91455°
Mean motion
3.33206 °/min
Orbital period
108.04 mins
BSTAR
-0.00052006
Loading maneuver chart data...
Computing Atmospheric mass density...
Loading historical data...
Loading historical data...
Loading historical data...
Loading historical data...
Loading historical data...
Loading historical data...
Loading historical data...

Documentation

Showing up to 5 results
|